Find COSMIC 1-4

NORAD ID: 29051 Int'l Des: 2006-011 Owner: NSPO Country: TW operational
LEOCIRCULAR

当前视图

正在加载3D地球...

关于 COSMIC 1-4

正在加载描述...

即将过境

Passes for default location (London). Set your location on the main map for personalized predictions.

高度历史

Loading altitude history...

两行轨道根数

1 29051U 06011E 26145.95509854 .00000395 00000-0 16027-3 0 9994
2 29051 72.0043 346.9746 0064891 130.0987 230.5864 14.31514510 52088
Epoch: May 25, 2026 • Age: 15 hours

当前状态

高度 798.7 km
速度 7.45 km/s
星下点 25.66°N, 101.69°W
发射日期 Apr 15, 2006
运行时间 20.1 years
类型 other

技术详情

分类 Payload
质量 62.00 kg
干质量 56.00 kg
总质量 62.00 kg
长度 0.20 m
直径 1.00 m
跨度 4.30 m
形状 Cyl + 2 Pan
制造商 OSCD
平台类型 Microstar
阶段状态 In Orbit
所有者/国家 NSPO/TW

Most Searched